When you browse on this site, cookies collect data to enhance your experience and personalize the content and advertising you see.
Visit our Privacy Policy to learn more. By continuing to use the site, you agree to this use of cookies and data.
  • en Suisse
  • Liste des pays
  • À 7 jours
  • Température de l'eau
  • Carte météo
  • Widgets météo
  • user-avatar
    Se connecter

    Météo par heure à Plai

    Ce jour, 18 Octobre, Vendredi

    Heure Température Précipitation Vent Pression Humidité
    00:00 +11°C° 0 mm 1 m/s 685 mmHg 85%
    01:00 +10°C° 0 mm 1 m/s 685 mmHg 84%
    02:00 +10°C° 0 mm 1 m/s 685 mmHg 84%
    03:00 +10°C° 0 mm 1 m/s 685 mmHg 83%
    04:00 +10°C° 0 mm 1 m/s 684 mmHg 83%
    05:00 +10°C° 0 mm 1 m/s 684 mmHg 82%
    06:00 +11°C° 0 mm 1 m/s 685 mmHg 80%
    07:00 +11°C° 0 mm 1 m/s 685 mmHg 77%
    08:00 +13°C° 0 mm 1 m/s 685 mmHg 73%
    09:00 +14°C° 0 mm 0 m/s 686 mmHg 65%
    10:00 +17°C° 0 mm 0 m/s 686 mmHg 58%
    11:00 +19°C° 0 mm 0 m/s 687 mmHg 50%
    12:00 +19°C° 0 mm 0 m/s 686 mmHg 48%
    13:00 +21°C° 0 mm 1 m/s 686 mmHg 47%
    14:00 +22°C° 0 mm 1 m/s 686 mmHg 46%
    15:00 +20°C° 0 mm 1 m/s 685 mmHg 54%
    16:00 +18°C° 0 mm 1 m/s 685 mmHg 62%
    17:00 +14°C° 0 mm 0 m/s 684 mmHg 70%
    18:00 +14°C° 0 mm 1 m/s 684 mmHg 74%
    19:00 +13°C° 0 mm 1 m/s 684 mmHg 77%
    20:00 +12°C° 0 mm 1 m/s 684 mmHg 81%
    21:00 +12°C° 0 mm 1 m/s 684 mmHg 81%
    22:00 +11°C° 0 mm 1 m/s 684 mmHg 80%
    23:00 +11°C° 0 mm 1 m/s 684 mmHg 80%

    Demain, 19 Octobre, Samedi

    Heure Température Précipitation Vent Pression Humidité
    00:00 +11°C° 0 mm 1 m/s 684 mmHg 79%
    01:00 +11°C° 0 mm 1 m/s 684 mmHg 78%
    02:00 +11°C° 0 mm 1 m/s 684 mmHg 77%
    03:00 +11°C° 0 mm 1 m/s 684 mmHg 76%
    04:00 +11°C° 0 mm 1 m/s 684 mmHg 75%
    05:00 +10°C° 0 mm 1 m/s 684 mmHg 74%
    06:00 +11°C° 0 mm 1 m/s 684 mmHg 73%
    07:00 +12°C° 0 mm 1 m/s 685 mmHg 72%
    08:00 +12°C° 0 mm 1 m/s 685 mmHg 71%
    09:00 +15°C° 0 mm 1 m/s 685 mmHg 64%
    10:00 +18°C° 0 mm 1 m/s 686 mmHg 56%
    11:00 +20°C° 0 mm 1 m/s 686 mmHg 49%
    12:00 +20°C° 0 mm 1 m/s 686 mmHg 48%
    13:00 +20°C° 0 mm 2 m/s 686 mmHg 48%
    14:00 +20°C° 0 mm 2 m/s 686 mmHg 47%
    15:00 +19°C° 0 mm 1 m/s 685 mmHg 54%
    16:00 +18°C° 0 mm 1 m/s 685 mmHg 62%
    17:00 +15°C° 0 mm 1 m/s 684 mmHg 69%
    18:00 +14°C° 0 mm 1 m/s 684 mmHg 72%
    19:00 +13°C° 0 mm 1 m/s 684 mmHg 75%
    20:00 +12°C° 0 mm 1 m/s 684 mmHg 79%
    21:00 +12°C° 0 mm 1 m/s 685 mmHg 78%
    22:00 +12°C° 0 mm 1 m/s 685 mmHg 77%
    23:00 +12°C° 0 mm 1 m/s 685 mmHg 76%

    Après-demain, 20 Octobre, Dimanche

    Heure Température Précipitation Vent Pression Humidité
    00:00 +12°C° 0 mm 1 m/s 685 mmHg 75%
    01:00 +12°C° 0 mm 1 m/s 685 mmHg 74%
    02:00 +10°C° 0 mm 2 m/s 685 mmHg 73%
    03:00 +11°C° 0 mm 1 m/s 685 mmHg 73%
    04:00 +11°C° 0 mm 1 m/s 685 mmHg 73%
    05:00 +11°C° 0 mm 1 m/s 685 mmHg 74%
    06:00 +12°C° 0 mm 1 m/s 685 mmHg 73%
    07:00 +12°C° 0 mm 1 m/s 686 mmHg 72%
    08:00 +13°C° 0 mm 1 m/s 686 mmHg 72%
    09:00 +15°C° 0 mm 1 m/s 686 mmHg 64%
    10:00 +18°C° 0 mm 1 m/s 687 mmHg 57%
    11:00 +21°C° 0 mm 1 m/s 687 mmHg 49%
    12:00 +21°C° 0 mm 1 m/s 687 mmHg 47%
    13:00 +22°C° 0 mm 1 m/s 687 mmHg 45%
    14:00 +21°C° 0 mm 2 m/s 687 mmHg 43%
    15:00 +20°C° 0 mm 1 m/s 687 mmHg 50%
    16:00 +18°C° 0 mm 1 m/s 686 mmHg 58%
    17:00 +16°C° 0 mm 1 m/s 686 mmHg 65%
    18:00 +14°C° 0 mm 1 m/s 686 mmHg 68%
    19:00 +13°C° 0 mm 1 m/s 686 mmHg 71%
    20:00 +12°C° 0 mm 1 m/s 686 mmHg 74%
    21:00 +12°C° 0 mm 1 m/s 686 mmHg 73%
    22:00 +12°C° 0 mm 1 m/s 686 mmHg 72%
    23:00 +12°C° 0 mm 1 m/s 686 mmHg 71%

    21 Octobre, Lundi

    Heure Température Précipitation Vent Pression Humidité
    00:00 +12°C° 0 mm 1 m/s 686 mmHg 71%
    01:00 +12°C° 0 mm 1 m/s 686 mmHg 70%
    02:00 +12°C° 0 mm 1 m/s 686 mmHg 70%
    03:00 +11°C° 0 mm 1 m/s 686 mmHg 71%
    04:00 +11°C° 0 mm 1 m/s 686 mmHg 72%
    05:00 +11°C° 0 mm 1 m/s 686 mmHg 74%
    06:00 +12°C° 0 mm 1 m/s 686 mmHg 72%
    07:00 +12°C° 0 mm 1 m/s 686 mmHg 70%
    08:00 +13°C° 0 mm 1 m/s 686 mmHg 69%
    09:00 +15°C° 0 mm 1 m/s 687 mmHg 61%
    10:00 +19°C° 0 mm 1 m/s 687 mmHg 53%
    11:00 +22°C° 0 mm 1 m/s 688 mmHg 45%
    12:00 +21°C° 0 mm 2 m/s 688 mmHg 43%
    13:00 +21°C° 0 mm 2 m/s 688 mmHg 42%
    14:00 +23°C° 0 mm 2 m/s 688 mmHg 40%
    15:00 +20°C° 0 mm 2 m/s 687 mmHg 48%
    16:00 +18°C° 0 mm 2 m/s 687 mmHg 56%
    17:00 +16°C° 0 mm 1 m/s 686 mmHg 64%
    18:00 +15°C° 0 mm 1 m/s 686 mmHg 66%
    19:00 +14°C° 0 mm 2 m/s 686 mmHg 69%
    20:00 +13°C° 0 mm 2 m/s 686 mmHg 71%
    21:00 +13°C° 0 mm 2 m/s 686 mmHg 70%
    22:00 +12°C° 0 mm 2 m/s 686 mmHg 69%
    23:00 +12°C° 0 mm 2 m/s 686 mmHg 68%

    22 Octobre, Mardi

    Heure Température Précipitation Vent Pression Humidité
    00:00 +12°C° 0 mm 2 m/s 686 mmHg 68%
    01:00 +12°C° 0 mm 1 m/s 686 mmHg 69%
    02:00 +12°C° 0 mm 1 m/s 686 mmHg 70%
    03:00 +12°C° 0 mm 1 m/s 686 mmHg 71%
    04:00 +12°C° 0 mm 1 m/s 687 mmHg 72%
    05:00 +11°C° 0 mm 1 m/s 687 mmHg 73%
    06:00 +12°C° 0 mm 1 m/s 687 mmHg 72%
    07:00 +12°C° 0 mm 1 m/s 687 mmHg 72%
    08:00 +13°C° 0 mm 1 m/s 688 mmHg 71%
    09:00 +15°C° 0 mm 1 m/s 688 mmHg 64%
    10:00 +19°C° 0 mm 1 m/s 689 mmHg 56%
    11:00 +21°C° 0 mm 1 m/s 689 mmHg 49%
    12:00 +22°C° 0 mm 1 m/s 689 mmHg 49%
    13:00 +22°C° 0 mm 1 m/s 689 mmHg 49%
    14:00 +22°C° 0 mm 1 m/s 689 mmHg 49%
    15:00 +20°C° 0 mm 1 m/s 688 mmHg 58%
    16:00 +18°C° 0 mm 1 m/s 688 mmHg 68%
    17:00 +15°C° 0 mm 1 m/s 688 mmHg 78%
    18:00 +14°C° 0 mm 1 m/s 688 mmHg 82%
    19:00 +13°C° 0 mm 1 m/s 688 mmHg 86%
    20:00 +12°C° 0 mm 1 m/s 688 mmHg 91%
    21:00 +12°C° 0 mm 1 m/s 688 mmHg 92%
    22:00 +12°C° 0 mm 1 m/s 688 mmHg 93%
    23:00 +12°C° 0 mm 1 m/s 689 mmHg 94%

    23 Octobre, Mercredi

    Heure Température Précipitation Vent Pression Humidité
    00:00 +12°C° 0 mm 1 m/s 689 mmHg 94%
    01:00 +11°C° 0 mm 1 m/s 689 mmHg 94%
    02:00 +10°C° 0 mm 0 m/s 689 mmHg 95%
    03:00 +10°C° 0 mm 0 m/s 689 mmHg 95%
    04:00 +10°C° 0 mm 1 m/s 689 mmHg 95%
    05:00 +10°C° 0 mm 1 m/s 689 mmHg 95%
    06:00 +10°C° 0 mm 1 m/s 689 mmHg 94%
    07:00 +10°C° 0 mm 1 m/s 689 mmHg 93%
    08:00 +11°C° 0 mm 1 m/s 689 mmHg 91%
    09:00 +13°C° 0 mm 1 m/s 689 mmHg 81%
    10:00 +15°C° 0 mm 1 m/s 690 mmHg 72%
    11:00 +18°C° 0 mm 1 m/s 690 mmHg 62%
    12:00 +19°C° 0 mm 1 m/s 690 mmHg 60%
    13:00 +19°C° 0 mm 1 m/s 689 mmHg 58%
    14:00 +20°C° 0 mm 1 m/s 689 mmHg 56%
    15:00 +18°C° 0 mm 1 m/s 689 mmHg 64%
    16:00 +15°C° 0 mm 1 m/s 688 mmHg 72%
    17:00 +13°C° 0 mm 1 m/s 687 mmHg 80%
    18:00 +11°C° 0 mm 0 m/s 687 mmHg 83%
    19:00 +11°C° 0 mm 0 m/s 687 mmHg 86%
    20:00 +10°C° 0 mm 0 m/s 687 mmHg 90%
    21:00 +9°C° 0 mm 0 m/s 687 mmHg 90%
    22:00 +10°C° 0 mm 1 m/s 687 mmHg 91%
    23:00 +10°C° 0 mm 1 m/s 687 mmHg 91%
    Voir plus